This demonstration page uses our WeatherBlox Daily Observations layout. Learn more.

Left ArrowRight Arrow

41.86663, -103.66717

Hourly Observations for June 22, 2021

Temp ( °F °C ) Dew Point ( °F °C ) Humidity (%) Winds ( mph kmh ) Pressure ( in mb ) Visibility ( mi km ) Precip ( " mm )
12:53 am 00:53 Clear 60 15.6 51 10.6 72 72 E 5 7 29.85 1011 10 16 N/A
1:53 am 01:53 Clear 59 15 50 10 72 72 ESE 7 11 29.82 1010 10 16 N/A
2:53 am 02:53 Clear 58 14.4 50 10 75 75 ENE 5 7 29.79 1009 10 16 N/A
3:53 am 03:53 Clear 59 15 50 10 72 72 VRB 3 6 29.78 1008 10 16 N/A
4:53 am 04:53 Clear 58 14.4 51 10.6 78 78 ENE 3 6 29.75 1008 10 16 N/A
5:53 am 05:53 Sunny 57 13.9 51 10.6 81 81 E 7 11 29.75 1008 10 16 N/A
6:53 am 06:53 Sunny 61 16.1 52 11.1 72 72 E 7 11 29.75 1007 10 16 N/A
7:53 am 07:53 Sunny 65 18.3 53 11.7 66 66 SW 3 6 29.75 1008 10 16 N/A
8:53 am 08:53 Sunny 70 21.1 53 11.7 55 55 WNW 7 11 29.76 1008 10 16 N/A
9:53 am 09:53 Sunny 75 23.9 54 12.2 48 48 NW 8 13 29.75 1008 10 16 N/A
10:53 am 10:53 Sunny 80 26.7 53 11.7 39 39 WNW 7 11 29.75 1007 10 16 N/A
11:53 am 11:53 Sunny 85 29.4 52 11.1 32 32 NW 9 15 29.73 1007 10 16 N/A
12:53 pm 12:53 Sunny 90 32.2 39 3.9 17 17 VRB 7 11 29.71 1006 10 16 N/A
1:53 pm 13:53 Sunny 90 32.2 36 2.2 15 15 N N/A 29.70 1006 10 16 N/A
2:53 pm 14:53 Sunny 92 33.3 36 2.2 14 14 W 5 7 29.68 1005 10 16 N/A
3:53 pm 15:53 Sunny 95 35 39 3.9 14 14 W 8 13 29.65 1004 10 16 N/A
4:53 pm 16:53 Sunny 95 35 39 3.9 14 14 W 9 15 29.63 1003 10 16 N/A
5:53 pm 17:53 Sunny 93 33.9 41 5 16 16 S 8 13 29.61 1003 10 16 N/A
6:53 pm 18:53 Sunny 91 32.8 42 5.6 18 18 SSE 8 13 29.60 1002 10 16 N/A
7:53 pm 19:53 Sunny 86 30 49 9.4 28 28 SE 9 15 29.62 1003 10 16 N/A
8:53 pm 20:53 Clear 77 25 51 10.6 40 40 E 8 13 29.65 1004 10 16 N/A
9:53 pm 21:53 Clear 74 23.3 50 10 43 43 E 7 11 29.66 1005 10 16 N/A
10:53 pm 22:53 Clear 70 21.1 50 10 49 49 ESE 8 13 29.67 1005 10 16 N/A
11:53 pm 23:53 Clear 70 21.1 50 10 49 49 E 12 19 29.65 1004 10 16 N/A

Powered by AerisWeather